STARLINK-1291 (45393 NORAD) Tracking and Keplerian Element Data

This shows tracking and keplerian element data for the satellite.

Feedback or suggestion? Click here.




ElementValue
Catalog45393
NameSTARLINK-1291
Epoch Orbit1729
Epoch Day187.50002315
Epoch Year2020
RAAN93.5198
Inclination53.0021
Eccentricity0.0001705
Argument of Perigee86.7158
Mean Anonmoly251.1533
Mean Motion15.05575341
Decay Rate-3.256E-05
L11 45393U 20019AK 20187.50002315 -.00003256 00000-0 -20444-3 0 9995
L22 45393 53.0021 93.5198 0001705 86.7158 251.1533 15.05575341 17295

Live tracking and technical data element details for STARLINK-1291 (NORAD 45393). STARLINK-1291 can be tracked NOW for your location showing map with azimuth and elevation plus other details from your city location.

Track the satellite on the map from your city or location and see movement details for azimuth, elevation, latitude, longitude, range, height, and movement on the map or in text.







IsCatalogInMostPopularTable: catalog: 45393, numindb: 23
Update: records affected: 1



GetName: 45393 STARLINK-1291

Hit Count: updated at: Mon, 06 Jul 2020 06:11:29 GMT